{"data":{"norad_id":58450,"intl_designator":"2023-183P","name":"STARLINK-30946","alt_names":[],"object_type":"PAYLOAD","status":"ACTIVE","operator":null,"country":"US","launch_date":"2023-11-28","launch_site_code":"AFETR","launch_vehicle":null,"mission":null,"orbit_class":"UNKNOWN","rcs_meters":null,"size_class":null,"mass_kg":null,"dimensions":null,"purposes":["comms"],"wikipedia_slug":null,"has_3d_model":false,"image_url":null,"decayed_at":null,"tle_current":{"epoch":"2026-09-19T16:27:03.458880Z","epoch_age_seconds":217196,"freshness":"STALE","line1":"1 58450U 23183P   26262.68545670 -.00000165  00000+0  35372-5 0  9995","line2":"2 58450  43.0029  26.0182 0001509 249.8908 110.1782 15.27579377156405","mean_motion":15.27579377,"eccentricity":0.0001509,"inclination_deg":43.0029,"raan_deg":26.0182,"arg_perigee_deg":249.8908,"mean_anomaly_deg":110.1782,"bstar":3.5372e-6,"rev_number":15640,"period_min":94.26678715891,"perigee_km":482.01560826302,"apogee_km":484.08631478981,"semimajor_km":6861.1879615264,"source":"CELESTRAK","updated_at":"2026-09-21T09:00:33.878115Z"}}}